Time,TemperatureF,DewpointF,PressureIn,WindDirection,WindDirectionDegrees,WindSpeedMPH,WindSpeedGustMPH,Humidity,HourlyPrecipIn,Conditions,Clouds,dailyrainin,SoftwareType,DateUTC
2013-05-05 00:01:00,62.6,39.8,30.03,North,353,1.0,6.0,43,0.00,,,0.00,WUHU216DAVISVP2,2013-05-05 07:01:00,
2013-05-05 00:06:00,62.2,39.9,30.03,ENE,72,0.0,5.0,44,0.00,,,0.00,WUHU216DAVISVP2,2013-05-05 07:06:00,
2013-05-05 00:11:00,61.7,40.1,30.03,North,5,1.0,4.0,45,0.00,,,0.00,WUHU216DAVISVP2,2013-05-05 07:11:00,
2013-05-05 00:16:00,61.6,40.0,30.03,NNW,345,2.0,3.0,45,0.00,,,0.00,WUHU216DAVISVP2,2013-05-05 07:16:00,
2013-05-05 00:21:00,61.6,40.0,30.03,North,4,2.0,4.0,45,0.00,,,0.00,WUHU216DAVISVP2,2013-05-05 07:21:00,
2013-05-05 00:26:00,61.6,40.0,30.03,North,352,1.0,4.0,45,0.00,,,0.00,WUHU216DAVISVP2,2013-05-05 07:26:00,
2013-05-05 00:31:00,61.4,39.8,30.03,NNE,15,4.0,5.0,45,0.00,,,0.00,WUHU216DAVISVP2,2013-05-05 07:31:00,
2013-05-05 00:36:00,61.4,39.8,30.02,North,359,2.0,5.0,45,0.00,,,0.00,WUHU216DAVISVP2,2013-05-05 07:36:00,
2013-05-05 00:41:00,61.3,40.3,30.02,North,4,3.0,5.0,46,0.00,,,0.00,WUHU216DAVISVP2,2013-05-05 07:41:00,
2013-05-05 00:46:00,61.2,40.2,30.02,NNW,339,3.0,5.0,46,0.00,,,0.00,WUHU216DAVISVP2,2013-05-05 07:46:00,
2013-05-05 00:51:00,61.2,40.2,30.02,NNE,13,2.0,6.0,46,0.00,,,0.00,WUHU216DAVISVP2,2013-05-05 07:51:00,
2013-05-05 00:56:00,61.1,40.7,30.02,North,359,5.0,7.0,47,0.00,,,0.00,WUHU216DAVISVP2,2013-05-05 07:56:00,
2013-05-05 01:01:00,61.1,40.7,30.02,ENE,63,4.0,8.0,47,0.00,,,0.00,WUHU216DAVISVP2,2013-05-05 08:01:00,
2013-05-05 01:06:00,61.3,40.9,30.02,NE,39,5.0,8.0,47,0.00,,,0.00,WUHU216DAVISVP2,2013-05-05 08:06:00,
2013-05-05 01:11:00,61.4,41.0,30.02,NNE,20,3.0,9.0,47,0.00,,,0.00,WUHU216DAVISVP2,2013-05-05 08:11:00,
2013-05-05 01:16:00,61.2,40.8,30.02,NNW,333,3.0,9.0,47,0.00,,,0.00,WUHU216DAVISVP2,2013-05-05 08:16:00,
2013-05-05 01:21:00,61.2,41.3,30.01,NNW,348,3.0,9.0,48,0.00,,,0.00,WUHU216DAVISVP2,2013-05-05 08:21:00,
2013-05-05 01:26:00,61.1,41.2,30.01,NNW,343,3.0,9.0,48,0.00,,,0.00,WUHU216DAVISVP2,2013-05-05 08:26:00,
2013-05-05 01:31:00,61.0,41.1,30.02,NE,39,1.0,8.0,48,0.00,,,0.00,WUHU216DAVISVP2,2013-05-05 08:31:00,
2013-05-05 01:36:00,60.7,41.4,30.02,North,349,2.0,8.0,49,0.00,,,0.00,WUHU216DAVISVP2,2013-05-05 08:36:00,
2013-05-05 01:41:00,60.4,41.7,30.02,NNE,33,2.0,7.0,50,0.00,,,0.00,WUHU216DAVISVP2,2013-05-05 08:41:00,
2013-05-05 01:46:00,60.0,41.8,30.01,NNW,338,2.0,6.0,51,0.00,,,0.00,WUHU216DAVISVP2,2013-05-05 08:46:00,
2013-05-05 01:51:00,59.8,41.7,30.01,NNW,343,3.0,6.0,51,0.00,,,0.00,WUHU216DAVISVP2,2013-05-05 08:51:00,
2013-05-05 01:56:00,59.6,42.0,30.01,NNE,20,2.0,6.0,52,0.00,,,0.00,WUHU216DAVISVP2,2013-05-05 08:56:00,
2013-05-05 02:01:00,59.3,41.7,30.02,NE,44,0.0,6.0,52,0.00,,,0.00,WUHU216DAVISVP2,2013-05-05 09:01:00,
2013-05-05 02:06:00,58.9,41.8,30.01,NNE,32,1.0,6.0,53,0.00,,,0.00,WUHU216DAVISVP2,2013-05-05 09:06:00,
2013-05-05 02:11:00,58.6,42.1,30.01,NNW,347,2.0,3.0,54,0.00,,,0.00,WUHU216DAVISVP2,2013-05-05 09:11:00,
2013-05-05 02:16:00,58.6,42.1,30.01,ENE,70,2.0,4.0,54,0.00,,,0.00,WUHU216DAVISVP2,2013-05-05 09:16:00,
2013-05-05 02:21:00,58.4,42.4,30.02,ENE,70,2.0,4.0,55,0.00,,,0.00,WUHU216DAVISVP2,2013-05-05 09:21:00,
2013-05-05 02:26:00,58.4,41.9,30.02,ENE,63,3.0,4.0,54,0.00,,,0.00,WUHU216DAVISVP2,2013-05-05 09:26:00,
2013-05-05 02:31:00,58.5,41.9,30.02,ENE,70,0.0,4.0,54,0.00,,,0.00,WUHU216DAVISVP2,2013-05-05 09:31:00,
2013-05-05 02:36:00,58.5,41.9,30.02,ENE,76,2.0,4.0,54,0.00,,,0.00,WUHU216DAVISVP2,2013-05-05 09:36:00,
2013-05-05 02:41:00,58.7,42.2,30.02,NE,55,1.0,4.0,54,0.00,,,0.00,WUHU216DAVISVP2,2013-05-05 09:41:00,
2013-05-05 02:46:00,59.0,41.9,30.02,ENE,72,1.0,5.0,53,0.00,,,0.00,WUHU216DAVISVP2,2013-05-05 09:46:00,
2013-05-05 02:51:00,59.0,42.4,30.02,ENE,77,4.0,5.0,54,0.00,,,0.00,WUHU216DAVISVP2,2013-05-05 09:51:00,
2013-05-05 02:56:00,59.1,42.5,30.01,ENE,70,4.0,5.0,54,0.00,,,0.00,WUHU216DAVISVP2,2013-05-05 09:56:00,
2013-05-05 03:01:00,59.0,42.4,30.01,NNE,25,1.0,4.0,54,0.00,,,0.00,WUHU216DAVISVP2,2013-05-05 10:01:00,
2013-05-05 03:06:00,58.5,42.9,30.01,ENE,64,2.0,4.0,56,0.00,,,0.00,WUHU216DAVISVP2,2013-05-05 10:06:00,
2013-05-05 03:11:00,58.2,42.7,30.01,NE,54,1.0,4.0,56,0.00,,,0.00,WUHU216DAVISVP2,2013-05-05 10:11:00,
2013-05-05 03:16:00,58.2,42.6,30.01,ENE,70,1.0,3.0,56,0.00,,,0.00,WUHU216DAVISVP2,2013-05-05 10:16:00,
2013-05-05 03:21:00,58.1,42.5,30.01,East,79,0.0,3.0,56,0.00,,,0.00,WUHU216DAVISVP2,2013-05-05 10:21:00,
2013-05-05 03:26:00,57.8,42.7,30.01,North,11,0.0,3.0,57,0.00,,,0.00,WUHU216DAVISVP2,2013-05-05 10:26:00,
2013-05-05 03:31:00,57.5,42.5,30.00,North,8,2.0,2.0,57,0.00,,,0.00,WUHU216DAVISVP2,2013-05-05 10:31:00,
2013-05-05 03:36:00,57.9,42.9,30.00,North,353,2.0,5.0,57,0.00,,,0.00,WUHU216DAVISVP2,2013-05-05 10:36:00,
2013-05-05 03:41:00,58.3,42.3,30.00,NNW,329,4.0,6.0,55,0.00,,,0.00,WUHU216DAVISVP2,2013-05-05 10:41:00,
2013-05-05 03:46:00,58.7,42.6,30.00,North,350,3.0,6.0,55,0.00,,,0.00,WUHU216DAVISVP2,2013-05-05 10:46:00,
2013-05-05 03:51:00,59.2,42.1,30.00,NNW,331,2.0,6.0,53,0.00,,,0.00,WUHU216DAVISVP2,2013-05-05 10:51:00,
2013-05-05 03:56:00,59.6,42.5,30.00,North,359,2.0,6.0,53,0.00,,,0.00,WUHU216DAVISVP2,2013-05-05 10:56:00,
2013-05-05 04:01:00,59.2,42.6,30.00,NNW,347,1.0,6.0,54,0.00,,,0.00,WUHU216DAVISVP2,2013-05-05 11:01:00,
2013-05-05 04:06:00,58.4,42.4,30.00,NNE,13,0.0,6.0,55,0.00,,,0.00,WUHU216DAVISVP2,2013-05-05 11:06:00,
2013-05-05 04:11:00,57.8,42.2,30.00,NNE,22,2.0,4.0,56,0.00,,,0.00,WUHU216DAVISVP2,2013-05-05 11:11:00,
2013-05-05 04:16:00,57.4,42.3,30.00,NNW,330,0.0,4.0,57,0.00,,,0.00,WUHU216DAVISVP2,2013-05-05 11:16:00,
2013-05-05 04:21:00,57.1,42.0,30.00,NNW,340,0.0,4.0,57,0.00,,,0.00,WUHU216DAVISVP2,2013-05-05 11:21:00,
2013-05-05 04:26:00,56.7,42.2,30.00,North,353,0.0,4.0,58,0.00,,,0.00,WUHU216DAVISVP2,2013-05-05 11:26:00,
2013-05-05 04:31:00,56.4,42.4,30.00,NW,316,0.0,4.0,59,0.00,,,0.00,WUHU216DAVISVP2,2013-05-05 11:31:00,
2013-05-05 04:36:00,56.2,42.2,30.00,North,360,0.0,4.0,59,0.00,,,0.00,WUHU216DAVISVP2,2013-05-05 11:36:00,
2013-05-05 04:41:00,56.2,42.2,30.00,East,89,1.0,5.0,59,0.00,,,0.00,WUHU216DAVISVP2,2013-05-05 11:41:00,
2013-05-05 04:46:00,56.1,42.1,30.00,SE,134,0.0,5.0,59,0.00,,,0.00,WUHU216DAVISVP2,2013-05-05 11:46:00,
2013-05-05 04:51:00,56.0,42.0,30.00,East,80,2.0,5.0,59,0.00,,,0.00,WUHU216DAVISVP2,2013-05-05 11:51:00,
2013-05-05 04:56:00,56.2,42.1,29.99,ENE,65,2.0,5.0,59,0.00,,,0.00,WUHU216DAVISVP2,2013-05-05 11:56:00,
2013-05-05 05:01:00,56.2,41.6,29.99,NNW,333,1.0,5.0,58,0.00,,,0.00,WUHU216DAVISVP2,2013-05-05 12:01:00,
2013-05-05 05:06:00,56.0,41.9,30.00,NNW,338,0.0,5.0,59,0.00,,,0.00,WUHU216DAVISVP2,2013-05-05 12:06:00,
2013-05-05 05:11:00,55.5,41.9,30.00,NNW,338,0.0,5.0,60,0.00,,,0.00,WUHU216DAVISVP2,2013-05-05 12:11:00,
2013-05-05 05:16:00,54.9,41.8,30.00,NNW,338,0.0,5.0,61,0.00,,,0.00,WUHU216DAVISVP2,2013-05-05 12:16:00,
2013-05-05 05:21:00,54.3,41.7,30.00,NNW,338,0.0,1.0,62,0.00,,,0.00,WUHU216DAVISVP2,2013-05-05 12:21:00,
2013-05-05 05:26:00,53.7,41.9,30.00,NNW,338,0.0,1.0,64,0.00,,,0.00,WUHU216DAVISVP2,2013-05-05 12:26:00,
2013-05-05 05:31:00,53.6,41.8,30.00,North,3,0.0,1.0,64,0.00,,,0.00,WUHU216DAVISVP2,2013-05-05 12:31:00,
2013-05-05 05:36:00,53.6,42.2,30.00,North,4,0.0,1.0,65,0.00,,,0.00,WUHU216DAVISVP2,2013-05-05 12:36:00,
2013-05-05 05:41:00,53.4,42.8,29.99,North,3,0.0,1.0,67,0.00,,,0.00,WUHU216DAVISVP2,2013-05-05 12:41:00,
2013-05-05 05:46:00,53.6,43.3,29.99,North,4,0.0,1.0,68,0.00,,,0.00,WUHU216DAVISVP2,2013-05-05 12:46:00,
2013-05-05 05:51:00,53.7,42.6,29.99,North,3,0.0,1.0,66,0.00,,,0.00,WUHU216DAVISVP2,2013-05-05 12:51:00,
2013-05-05 05:56:00,53.9,42.5,29.99,NNW,344,1.0,1.0,65,0.00,,,0.00,WUHU216DAVISVP2,2013-05-05 12:56:00,
2013-05-05 06:01:00,54.1,42.3,29.99,ENE,65,0.0,2.0,64,0.00,,,0.00,WUHU216DAVISVP2,2013-05-05 13:01:00,
2013-05-05 06:06:00,54.5,42.3,29.99,East,81,0.0,2.0,63,0.00,,,0.00,WUHU216DAVISVP2,2013-05-05 13:06:00,
2013-05-05 06:11:00,54.4,42.6,29.99,ENE,72,1.0,2.0,64,0.00,,,0.00,WUHU216DAVISVP2,2013-05-05 13:11:00,
2013-05-05 06:16:00,54.4,42.6,29.99,ENE,72,2.0,4.0,64,0.00,,,0.00,WUHU216DAVISVP2,2013-05-05 13:16:00,
2013-05-05 06:21:00,54.2,42.8,29.99,East,89,0.0,4.0,65,0.00,,,0.00,WUHU216DAVISVP2,2013-05-05 13:21:00,
2013-05-05 06:26:00,53.8,42.8,29.99,East,89,0.0,3.0,66,0.00,,,0.00,WUHU216DAVISVP2,2013-05-05 13:26:00,
2013-05-05 06:31:00,53.8,43.2,29.99,East,85,1.0,3.0,67,0.00,,,0.00,WUHU216DAVISVP2,2013-05-05 13:31:00,
2013-05-05 06:36:00,54.4,43.8,30.00,East,85,0.0,1.0,67,0.00,,,0.00,WUHU216DAVISVP2,2013-05-05 13:36:00,
2013-05-05 06:41:00,55.0,44.0,30.00,East,84,0.0,0.0,66,0.00,,,0.00,WUHU216DAVISVP2,2013-05-05 13:41:00,
2013-05-05 06:46:00,55.7,44.9,30.00,East,85,0.0,0.0,67,0.00,,,0.00,WUHU216DAVISVP2,2013-05-05 13:46:00,
2013-05-05 06:51:00,56.5,45.4,30.00,East,84,0.0,0.0,66,0.00,,,0.00,WUHU216DAVISVP2,2013-05-05 13:51:00,
2013-05-05 06:56:00,56.8,45.3,29.99,East,85,0.0,0.0,65,0.00,,,0.00,WUHU216DAVISVP2,2013-05-05 13:56:00,
2013-05-05 07:01:00,56.9,45.0,29.99,East,84,0.0,0.0,64,0.00,,,0.00,WUHU216DAVISVP2,2013-05-05 14:01:00,
2013-05-05 07:05:00,57.2,45.3,29.99,NE,55,0.0,0.0,64,0.00,,,0.00,WUHU216DAVISVP2,2013-05-05 14:05:00,
2013-05-05 07:10:00,57.0,44.7,29.99,WSW,243,1.0,1.0,63,0.00,,,0.00,WUHU216DAVISVP2,2013-05-05 14:10:00,
2013-05-05 07:15:00,56.3,44.8,29.99,WSW,250,0.0,2.0,65,0.00,,,0.00,WUHU216DAVISVP2,2013-05-05 14:15:00,
2013-05-05 07:20:00,57.7,45.3,29.99,WSW,250,0.0,2.0,63,0.00,,,0.00,WUHU216DAVISVP2,2013-05-05 14:20:00,
2013-05-05 07:25:00,59.2,45.9,29.99,WSW,250,0.0,2.0,61,0.00,,,0.00,WUHU216DAVISVP2,2013-05-05 14:25:00,
2013-05-05 07:30:00,60.1,45.8,29.99,WSW,250,0.0,2.0,59,0.00,,,0.00,WUHU216DAVISVP2,2013-05-05 14:30:00,
2013-05-05 07:35:00,60.8,46.0,29.99,WSW,250,0.0,0.0,58,0.00,,,0.00,WUHU216DAVISVP2,2013-05-05 14:35:00,
2013-05-05 07:40:00,61.9,46.6,29.99,WSW,250,0.0,0.0,57,0.00,,,0.00,WUHU216DAVISVP2,2013-05-05 14:40:00,
2013-05-05 07:45:00,63.0,46.2,29.99,ENE,74,0.0,1.0,54,0.00,,,0.00,WUHU216DAVISVP2,2013-05-05 14:45:00,
2013-05-05 07:50:00,63.1,45.8,29.99,NNE,23,0.0,2.0,53,0.00,,,0.00,WUHU216DAVISVP2,2013-05-05 14:50:00,
2013-05-05 07:55:00,63.5,46.1,29.99,NNW,338,1.0,2.0,53,0.00,,,0.00,WUHU216DAVISVP2,2013-05-05 14:55:00,
2013-05-05 08:00:00,63.4,45.0,29.99,North,353,3.0,5.0,51,0.00,,,0.00,WUHU216DAVISVP2,2013-05-05 15:00:00,
2013-05-05 08:05:00,63.3,46.5,29.99,SW,230,1.0,5.0,54,0.00,,,0.00,WUHU216DAVISVP2,2013-05-05 15:05:00,
2013-05-05 08:10:00,64.0,46.6,29.99,ENE,58,0.0,5.0,53,0.00,,,0.00,WUHU216DAVISVP2,2013-05-05 15:10:00,
2013-05-05 08:15:00,64.9,46.4,29.98,NNW,334,0.0,5.0,51,0.00,,,0.00,WUHU216DAVISVP2,2013-05-05 15:15:00,
2013-05-05 08:20:00,65.5,47.5,29.98,WSW,240,0.0,2.0,52,0.00,,,0.00,WUHU216DAVISVP2,2013-05-05 15:20:00,
2013-05-05 08:25:00,65.7,47.1,29.98,NE,49,0.0,2.0,51,0.00,,,0.00,WUHU216DAVISVP2,2013-05-05 15:25:00,
2013-05-05 08:30:00,66.4,47.8,29.98,ESE,122,0.0,2.0,51,0.00,,,0.00,WUHU216DAVISVP2,2013-05-05 15:30:00,
2013-05-05 08:35:00,67.0,46.7,29.98,North,1,1.0,4.0,48,0.00,,,0.00,WUHU216DAVISVP2,2013-05-05 15:35:00,
2013-05-05 08:40:00,67.0,47.7,29.98,SW,222,1.0,4.0,50,0.00,,,0.00,WUHU216DAVISVP2,2013-05-05 15:40:00,
2013-05-05 08:45:00,66.7,48.0,29.98,SSE,163,1.0,3.0,51,0.00,,,0.00,WUHU216DAVISVP2,2013-05-05 15:45:00,
2013-05-05 08:50:00,65.7,47.7,29.98,SW,214,4.0,4.0,52,0.00,,,0.00,WUHU216DAVISVP2,2013-05-05 15:50:00,
2013-05-05 08:55:00,64.1,46.7,29.98,SSW,203,2.0,5.0,53,0.00,,,0.00,WUHU216DAVISVP2,2013-05-05 15:55:00,
2013-05-05 09:00:00,63.7,47.3,29.98,WSW,248,4.0,5.0,55,0.00,,,0.00,WUHU216DAVISVP2,2013-05-05 16:00:00,
2013-05-05 09:05:00,64.6,47.2,29.98,SW,221,0.0,5.0,53,0.00,,,0.00,WUHU216DAVISVP2,2013-05-05 16:05:00,
2013-05-05 09:10:00,65.7,46.6,29.97,SW,224,1.0,5.0,50,0.00,,,0.00,WUHU216DAVISVP2,2013-05-05 16:10:00,
2013-05-05 09:15:00,65.8,46.1,29.97,SW,234,2.0,4.0,49,0.00,,,0.00,WUHU216DAVISVP2,2013-05-05 16:15:00,
2013-05-05 09:20:00,65.8,47.2,29.97,WSW,241,3.0,4.0,51,0.00,,,0.00,WUHU216DAVISVP2,2013-05-05 16:20:00,
2013-05-05 09:25:00,65.4,46.3,29.98,SW,220,3.0,5.0,50,0.00,,,0.00,WUHU216DAVISVP2,2013-05-05 16:25:00,
2013-05-05 09:30:00,65.0,46.5,29.98,SSW,205,2.0,6.0,51,0.00,,,0.00,WUHU216DAVISVP2,2013-05-05 16:30:00,
2013-05-05 09:35:00,65.5,46.9,29.98,SSW,212,4.0,6.0,51,0.00,,,0.00,WUHU216DAVISVP2,2013-05-05 16:35:00,
2013-05-05 09:40:00,65.3,46.8,29.97,NE,43,0.0,6.0,51,0.00,,,0.00,WUHU216DAVISVP2,2013-05-05 16:40:00,
2013-05-05 09:45:00,66.9,47.7,29.97,North,355,0.0,6.0,50,0.00,,,0.00,WUHU216DAVISVP2,2013-05-05 16:45:00,
2013-05-05 09:50:00,67.6,46.6,29.97,WSW,252,0.0,5.0,47,0.00,,,0.00,WUHU216DAVISVP2,2013-05-05 16:50:00,
2013-05-05 09:55:00,68.1,46.5,29.97,SW,226,3.0,5.0,46,0.00,,,0.00,WUHU216DAVISVP2,2013-05-05 16:55:00,
2013-05-05 10:00:00,66.7,46.4,29.97,SW,225,0.0,6.0,48,0.00,,,0.00,WUHU216DAVISVP2,2013-05-05 17:00:00,
2013-05-05 10:05:00,66.7,46.4,29.97,WSW,245,0.0,6.0,48,0.00,,,0.00,WUHU216DAVISVP2,2013-05-05 17:05:00,
2013-05-05 10:10:00,68.3,47.3,29.97,SW,233,0.0,6.0,47,0.00,,,0.00,WUHU216DAVISVP2,2013-05-05 17:10:00,
2013-05-05 10:15:00,69.5,45.3,29.96,NW,326,1.0,4.0,42,0.00,,,0.00,WUHU216DAVISVP2,2013-05-05 17:15:00,
2013-05-05 10:20:00,69.6,44.7,29.96,NNE,32,0.0,5.0,41,0.00,,,0.00,WUHU216DAVISVP2,2013-05-05 17:20:00,
2013-05-05 10:25:00,69.4,45.3,29.96,North,6,2.0,7.0,42,0.00,,,0.00,WUHU216DAVISVP2,2013-05-05 17:25:00,
2013-05-05 10:30:00,69.9,45.0,29.96,North,356,4.0,7.0,41,0.00,,,0.00,WUHU216DAVISVP2,2013-05-05 17:30:00,
2013-05-05 10:35:00,70.0,44.4,29.96,NNW,341,7.0,10.0,40,0.00,,,0.00,WUHU216DAVISVP2,2013-05-05 17:35:00,
2013-05-05 10:40:00,69.9,44.4,29.96,NE,34,7.0,10.0,40,0.00,,,0.00,WUHU216DAVISVP2,2013-05-05 17:40:00,
2013-05-05 10:45:00,69.9,45.1,29.96,West,281,2.0,12.0,41,0.00,,,0.00,WUHU216DAVISVP2,2013-05-05 17:45:00,
2013-05-05 10:50:00,69.8,44.4,29.96,North,4,5.0,12.0,40,0.00,,,0.00,WUHU216DAVISVP2,2013-05-05 17:50:00,
2013-05-05 10:55:00,69.7,44.8,29.95,NE,39,3.0,12.0,41,0.00,,,0.00,WUHU216DAVISVP2,2013-05-05 17:55:00,
2013-05-05 11:00:00,69.8,42.9,29.95,NNW,341,3.0,14.0,38,0.00,,,0.00,WUHU216DAVISVP2,2013-05-05 18:00:00,
2013-05-05 11:05:00,70.1,43.2,29.95,NNW,339,9.0,14.0,38,0.00,,,0.00,WUHU216DAVISVP2,2013-05-05 18:05:00,
2013-05-05 11:10:00,70.4,43.6,29.95,North,1,9.0,13.0,38,0.00,,,0.00,WUHU216DAVISVP2,2013-05-05 18:10:00,
2013-05-05 11:15:00,70.6,43.6,29.95,NNW,342,5.0,13.0,38,0.00,,,0.00,WUHU216DAVISVP2,2013-05-05 18:15:00,
2013-05-05 11:20:00,71.1,44.1,29.94,NNE,19,3.0,13.0,38,0.00,,,0.00,WUHU216DAVISVP2,2013-05-05 18:20:00,
2013-05-05 11:25:00,71.2,44.1,29.94,NNW,340,3.0,12.0,38,0.00,,,0.00,WUHU216DAVISVP2,2013-05-05 18:25:00,
2013-05-05 11:30:00,71.4,42.9,29.94,NNW,340,9.0,14.0,36,0.00,,,0.00,WUHU216DAVISVP2,2013-05-05 18:30:00,
2013-05-05 11:35:00,71.4,42.9,29.94,North,5,6.0,14.0,36,0.00,,,0.00,WUHU216DAVISVP2,2013-05-05 18:35:00,
2013-05-05 11:40:00,71.7,43.2,29.94,NW,315,5.0,13.0,36,0.00,,,0.00,WUHU216DAVISVP2,2013-05-05 18:40:00,
2013-05-05 11:45:00,72.5,44.0,29.94,NNE,20,1.0,13.0,36,0.00,,,0.00,WUHU216DAVISVP2,2013-05-05 18:45:00,
2013-05-05 11:50:00,73.3,43.8,29.94,NE,53,1.0,11.0,35,0.00,,,0.00,WUHU216DAVISVP2,2013-05-05 18:50:00,
2013-05-05 11:55:00,74.4,44.8,29.94,NNE,27,0.0,9.0,35,0.00,,,0.00,WUHU216DAVISVP2,2013-05-05 18:55:00,
2013-05-05 12:00:00,75.1,44.0,29.94,NNW,340,2.0,5.0,33,0.00,,,0.00,WUHU216DAVISVP2,2013-05-05 19:00:00,
2013-05-05 12:05:00,75.6,43.5,29.94,NNE,30,1.0,5.0,32,0.00,,,0.00,WUHU216DAVISVP2,2013-05-05 19:05:00,
2013-05-05 12:10:00,75.9,44.6,29.93,NNE,27,1.0,5.0,33,0.00,,,0.00,WUHU216DAVISVP2,2013-05-05 19:10:00,
2013-05-05 12:15:00,76.2,44.8,29.93,NNE,30,0.0,4.0,33,0.00,,,0.00,WUHU216DAVISVP2,2013-05-05 19:15:00,
2013-05-05 12:20:00,76.8,45.5,29.93,SE,126,0.0,4.0,33,0.00,,,0.00,WUHU216DAVISVP2,2013-05-05 19:20:00,
2013-05-05 12:25:00,77.3,44.1,29.93,North,8,2.0,4.0,31,0.00,,,0.00,WUHU216DAVISVP2,2013-05-05 19:25:00,
2013-05-05 12:30:00,76.6,43.5,29.93,NE,46,3.0,6.0,31,0.00,,,0.00,WUHU216DAVISVP2,2013-05-05 19:30:00,
2013-05-05 12:35:00,76.4,43.4,29.92,ENE,68,2.0,6.0,31,0.00,,,0.00,WUHU216DAVISVP2,2013-05-05 19:35:00,
2013-05-05 12:40:00,76.1,44.1,29.92,NNE,12,1.0,5.0,32,0.00,,,0.00,WUHU216DAVISVP2,2013-05-05 19:40:00,
2013-05-05 12:45:00,75.7,42.7,29.92,ESE,122,1.0,9.0,31,0.00,,,0.00,WUHU216DAVISVP2,2013-05-05 19:45:00,
2013-05-05 12:50:00,75.3,43.2,29.92,NNE,24,3.0,9.0,32,0.00,,,0.00,WUHU216DAVISVP2,2013-05-05 19:50:00,
2013-05-05 12:55:00,74.7,44.3,29.92,NE,34,3.0,11.0,34,0.00,,,0.00,WUHU216DAVISVP2,2013-05-05 19:55:00,
2013-05-05 13:00:00,74.5,44.3,29.92,North,1,2.0,11.0,34,0.00,,,0.00,WUHU216DAVISVP2,2013-05-05 20:00:00,
2013-05-05 13:05:00,74.1,43.8,29.92,North,352,1.0,10.0,34,0.00,,,0.00,WUHU216DAVISVP2,2013-05-05 20:05:00,
2013-05-05 13:10:00,74.9,44.5,29.91,NNE,23,6.0,10.0,34,0.00,,,0.00,WUHU216DAVISVP2,2013-05-05 20:10:00,
2013-05-05 13:15:00,75.1,46.2,29.91,NNE,27,2.0,9.0,36,0.00,,,0.00,WUHU216DAVISVP2,2013-05-05 20:15:00,
2013-05-05 13:20:00,75.3,47.1,29.91,NNW,336,1.0,9.0,37,0.00,,,0.00,WUHU216DAVISVP2,2013-05-05 20:20:00,
2013-05-05 13:25:00,75.6,47.4,29.91,NNE,13,1.0,7.0,37,0.00,,,0.00,WUHU216DAVISVP2,2013-05-05 20:25:00,
2013-05-05 13:30:00,75.9,46.3,29.91,NE,50,1.0,6.0,35,0.00,,,0.00,WUHU216DAVISVP2,2013-05-05 20:30:00,
2013-05-05 13:35:00,75.7,46.8,29.91,WNW,294,1.0,6.0,36,0.00,,,0.00,WUHU216DAVISVP2,2013-05-05 20:35:00,
2013-05-05 13:40:00,75.7,45.9,29.91,NNE,12,3.0,6.0,35,0.00,,,0.00,WUHU216DAVISVP2,2013-05-05 20:40:00,
2013-05-05 13:45:00,75.4,42.5,29.91,North,6,2.0,12.0,31,0.00,,,0.00,WUHU216DAVISVP2,2013-05-05 20:45:00,
2013-05-05 13:50:00,75.1,42.4,29.90,South,184,0.0,12.0,31,0.00,,,0.00,WUHU216DAVISVP2,2013-05-05 20:50:00,
2013-05-05 13:55:00,75.1,41.5,29.90,North,5,4.0,12.0,30,0.00,,,0.00,WUHU216DAVISVP2,2013-05-05 20:55:00,
2013-05-05 14:00:00,74.9,42.2,29.90,North,6,1.0,12.0,31,0.00,,,0.00,WUHU216DAVISVP2,2013-05-05 21:00:00,
2013-05-05 14:05:00,74.8,41.3,29.89,NNE,26,2.0,14.0,30,0.00,,,0.00,WUHU216DAVISVP2,2013-05-05 21:05:00,
2013-05-05 14:10:00,74.9,40.5,29.89,NW,321,2.0,15.0,29,0.00,,,0.00,WUHU216DAVISVP2,2013-05-05 21:10:00,
2013-05-05 14:15:00,75.7,41.0,29.89,NNE,19,3.0,15.0,29,0.00,,,0.00,WUHU216DAVISVP2,2013-05-05 21:15:00,
2013-05-05 14:20:00,75.5,40.0,29.89,NNE,15,5.0,15.0,28,0.00,,,0.00,WUHU216DAVISVP2,2013-05-05 21:20:00,
2013-05-05 14:25:00,75.7,40.1,29.89,NE,38,12.0,15.0,28,0.00,,,0.00,WUHU216DAVISVP2,2013-05-05 21:25:00,
2013-05-05 14:30:00,75.6,40.0,29.89,North,353,2.0,14.0,28,0.00,,,0.00,WUHU216DAVISVP2,2013-05-05 21:30:00,
2013-05-05 14:35:00,75.6,43.5,29.88,NNW,333,1.0,14.0,32,0.00,,,0.00,WUHU216DAVISVP2,2013-05-05 21:35:00,
2013-05-05 14:40:00,76.5,44.3,29.88,NNE,20,3.0,13.0,32,0.00,,,0.00,WUHU216DAVISVP2,2013-05-05 21:40:00,
2013-05-05 14:45:00,75.8,44.6,29.88,NNW,330,2.0,13.0,33,0.00,,,0.00,WUHU216DAVISVP2,2013-05-05 21:45:00,
2013-05-05 14:50:00,75.5,45.0,29.88,NNW,341,7.0,12.0,34,0.00,,,0.00,WUHU216DAVISVP2,2013-05-05 21:50:00,
2013-05-05 14:55:00,75.3,45.6,29.88,East,84,3.0,12.0,35,0.00,,,0.00,WUHU216DAVISVP2,2013-05-05 21:55:00,
2013-05-05 15:00:00,76.1,46.3,29.87,North,360,6.0,12.0,35,0.00,,,0.00,WUHU216DAVISVP2,2013-05-05 22:00:00,
2013-05-05 15:05:00,75.9,45.4,29.87,NNW,330,6.0,13.0,34,0.00,,,0.00,WUHU216DAVISVP2,2013-05-05 22:05:00,
2013-05-05 15:10:00,75.4,45.7,29.87,NE,45,5.0,13.0,35,0.00,,,0.00,WUHU216DAVISVP2,2013-05-05 22:10:00,
2013-05-05 15:15:00,75.4,45.7,29.87,WSW,240,2.0,11.0,35,0.00,,,0.00,WUHU216DAVISVP2,2013-05-05 22:15:00,
2013-05-05 15:20:00,75.6,44.3,29.87,ENE,60,7.0,13.0,33,0.00,,,0.00,WUHU216DAVISVP2,2013-05-05 22:20:00,
2013-05-05 15:25:00,74.9,42.9,29.87,NNE,18,10.0,17.0,32,0.00,,,0.00,WUHU216DAVISVP2,2013-05-05 22:25:00,
2013-05-05 15:30:00,74.6,43.4,29.86,NW,321,12.0,17.0,33,0.00,,,0.00,WUHU216DAVISVP2,2013-05-05 22:30:00,
2013-05-05 15:35:00,74.4,43.4,29.86,North,357,2.0,18.0,33,0.00,,,0.00,WUHU216DAVISVP2,2013-05-05 22:35:00,
2013-05-05 15:40:00,74.8,43.6,29.85,North,349,5.0,18.0,33,0.00,,,0.00,WUHU216DAVISVP2,2013-05-05 22:40:00,
2013-05-05 15:45:00,75.2,43.9,29.85,South,176,1.0,16.0,33,0.00,,,0.00,WUHU216DAVISVP2,2013-05-05 22:45:00,
2013-05-05 15:50:00,75.6,44.3,29.85,NE,35,3.0,16.0,33,0.00,,,0.00,WUHU216DAVISVP2,2013-05-05 22:50:00,
2013-05-05 15:55:00,75.6,43.7,29.85,North,4,7.0,15.0,32,0.00,,,0.00,WUHU216DAVISVP2,2013-05-05 22:55:00,
2013-05-05 16:00:00,75.7,44.5,29.85,NNW,344,4.0,14.0,33,0.00,,,0.00,WUHU216DAVISVP2,2013-05-05 23:00:00,
2013-05-05 16:05:00,76.2,43.2,29.85,NNE,16,4.0,16.0,31,0.00,,,0.00,WUHU216DAVISVP2,2013-05-05 23:05:00,
2013-05-05 16:10:00,76.2,43.2,29.85,North,8,6.0,16.0,31,0.00,,,0.00,WUHU216DAVISVP2,2013-05-05 23:10:00,
2013-05-05 16:15:00,76.4,41.6,29.84,North,352,6.0,16.0,29,0.00,,,0.00,WUHU216DAVISVP2,2013-05-05 23:15:00,
2013-05-05 16:20:00,76.3,42.6,29.84,NE,44,2.0,15.0,30,0.00,,,0.00,WUHU216DAVISVP2,2013-05-05 23:20:00,
2013-05-05 16:25:00,76.4,42.5,29.84,NNE,15,11.0,13.0,30,0.00,,,0.00,WUHU216DAVISVP2,2013-05-05 23:25:00,
2013-05-05 16:30:00,76.3,42.4,29.84,North,352,10.0,13.0,30,0.00,,,0.00,WUHU216DAVISVP2,2013-05-05 23:30:00,
2013-05-05 16:35:00,76.4,41.6,29.83,NW,314,6.0,13.0,29,0.00,,,0.00,WUHU216DAVISVP2,2013-05-05 23:35:00,
2013-05-05 16:40:00,76.4,41.6,29.83,NNE,13,4.0,13.0,29,0.00,,,0.00,WUHU216DAVISVP2,2013-05-05 23:40:00,
2013-05-05 16:45:00,77.2,41.4,29.83,North,360,2.0,13.0,28,0.00,,,0.00,WUHU216DAVISVP2,2013-05-05 23:45:00,
2013-05-05 16:50:00,77.3,41.5,29.83,NE,34,1.0,12.0,28,0.00,,,0.00,WUHU216DAVISVP2,2013-05-05 23:50:00,
2013-05-05 16:55:00,77.4,41.6,29.83,NNW,342,3.0,11.0,28,0.00,,,0.00,WUHU216DAVISVP2,2013-05-05 23:55:00,
2013-05-05 17:00:00,77.5,40.7,29.83,NNE,30,4.0,10.0,27,0.00,,,0.00,WUHU216DAVISVP2,2013-05-06 00:00:00,
2013-05-05 17:05:00,77.3,40.7,29.83,NNW,342,1.0,13.0,27,0.00,,,0.00,WUHU216DAVISVP2,2013-05-06 00:05:00,
2013-05-05 17:10:00,77.4,38.8,29.82,WSW,238,5.0,13.0,25,0.00,,,0.00,WUHU216DAVISVP2,2013-05-06 00:10:00,
2013-05-05 17:15:00,77.7,41.0,29.83,NE,40,2.0,13.0,27,0.00,,,0.00,WUHU216DAVISVP2,2013-05-06 00:15:00,
2013-05-05 17:20:00,77.8,39.0,29.82,NNE,15,4.0,12.0,25,0.00,,,0.00,WUHU216DAVISVP2,2013-05-06 00:20:00,
2013-05-05 17:25:00,77.6,39.0,29.82,NNE,17,3.0,12.0,25,0.00,,,0.00,WUHU216DAVISVP2,2013-05-06 00:25:00,
2013-05-05 17:30:00,77.7,37.9,29.82,NNE,18,2.0,12.0,24,0.00,,,0.00,WUHU216DAVISVP2,2013-05-06 00:30:00,
2013-05-05 17:35:00,77.5,37.8,29.82,NNW,339,5.0,15.0,24,0.00,,,0.00,WUHU216DAVISVP2,2013-05-06 00:35:00,
2013-05-05 17:40:00,77.4,39.7,29.82,North,4,9.0,15.0,26,0.00,,,0.00,WUHU216DAVISVP2,2013-05-06 00:40:00,
2013-05-05 17:45:00,77.1,40.4,29.82,NE,37,5.0,15.0,27,0.00,,,0.00,WUHU216DAVISVP2,2013-05-06 00:45:00,
2013-05-05 17:50:00,77.1,40.4,29.81,NNW,343,5.0,15.0,27,0.00,,,0.00,WUHU216DAVISVP2,2013-05-06 00:50:00,
2013-05-05 17:55:00,76.9,41.3,29.82,NNW,330,1.0,14.0,28,0.00,,,0.00,WUHU216DAVISVP2,2013-05-06 00:55:00,
2013-05-05 18:00:00,76.6,41.0,29.81,NNW,330,6.0,14.0,28,0.00,,,0.00,WUHU216DAVISVP2,2013-05-06 01:00:00,
2013-05-05 18:05:00,76.5,40.8,29.81,WNW,303,1.0,12.0,28,0.00,,,0.00,WUHU216DAVISVP2,2013-05-06 01:05:00,
2013-05-05 18:10:00,76.5,41.7,29.81,NNE,13,2.0,12.0,29,0.00,,,0.00,WUHU216DAVISVP2,2013-05-06 01:10:00,
2013-05-05 18:15:00,76.5,41.7,29.82,NE,42,1.0,11.0,29,0.00,,,0.00,WUHU216DAVISVP2,2013-05-06 01:15:00,
2013-05-05 18:20:00,76.5,42.6,29.81,NNE,22,3.0,11.0,30,0.00,,,0.00,WUHU216DAVISVP2,2013-05-06 01:20:00,
2013-05-05 18:25:00,76.6,42.7,29.81,NNW,339,2.0,11.0,30,0.00,,,0.00,WUHU216DAVISVP2,2013-05-06 01:25:00,
2013-05-05 18:30:00,76.4,42.5,29.81,NNE,27,6.0,12.0,30,0.00,,,0.00,WUHU216DAVISVP2,2013-05-06 01:30:00,
2013-05-05 18:35:00,76.0,43.0,29.81,North,8,9.0,12.0,31,0.00,,,0.00,WUHU216DAVISVP2,2013-05-06 01:35:00,
2013-05-05 18:40:00,75.9,43.8,29.81,North,1,2.0,10.0,32,0.00,,,0.00,WUHU216DAVISVP2,2013-05-06 01:40:00,
2013-05-05 18:45:00,75.7,43.7,29.81,SW,221,2.0,10.0,32,0.00,,,0.00,WUHU216DAVISVP2,2013-05-06 01:45:00,
2013-05-05 18:50:00,75.4,44.3,29.81,NNE,12,3.0,10.0,33,0.00,,,0.00,WUHU216DAVISVP2,2013-05-06 01:50:00,
2013-05-05 18:55:00,75.2,43.9,29.81,North,356,5.0,10.0,33,0.00,,,0.00,WUHU216DAVISVP2,2013-05-06 01:55:00,
2013-05-05 19:00:00,75.0,43.8,29.81,NNE,13,2.0,11.0,33,0.00,,,0.00,WUHU216DAVISVP2,2013-05-06 02:00:00,
2013-05-05 19:05:00,74.8,44.4,29.81,NNW,340,3.0,11.0,34,0.00,,,0.00,WUHU216DAVISVP2,2013-05-06 02:05:00,
2013-05-05 19:10:00,74.5,44.1,29.81,NNW,330,1.0,11.0,34,0.00,,,0.00,WUHU216DAVISVP2,2013-05-06 02:10:00,
2013-05-05 19:15:00,74.3,44.7,29.81,NNW,338,0.0,10.0,35,0.00,,,0.00,WUHU216DAVISVP2,2013-05-06 02:15:00,
2013-05-05 19:20:00,74.2,44.6,29.81,NNE,15,0.0,7.0,35,0.00,,,0.00,WUHU216DAVISVP2,2013-05-06 02:20:00,
2013-05-05 19:25:00,73.9,45.3,29.81,NNE,30,1.0,6.0,36,0.00,,,0.00,WUHU216DAVISVP2,2013-05-06 02:25:00,
2013-05-05 19:30:00,73.7,45.1,29.81,NE,46,1.0,5.0,36,0.00,,,0.00,WUHU216DAVISVP2,2013-05-06 02:30:00,
2013-05-05 19:35:00,73.5,45.5,29.81,SSW,208,2.0,3.0,37,0.00,,,0.00,WUHU216DAVISVP2,2013-05-06 02:35:00,
2013-05-05 19:40:00,73.1,46.5,29.81,WSW,239,1.0,4.0,39,0.00,,,0.00,WUHU216DAVISVP2,2013-05-06 02:40:00,
2013-05-05 19:45:00,72.6,46.8,29.81,ESE,114,1.0,4.0,40,0.00,,,0.00,WUHU216DAVISVP2,2013-05-06 02:45:00,
2013-05-05 19:50:00,72.0,47.6,29.81,NE,46,0.0,3.0,42,0.00,,,0.00,WUHU216DAVISVP2,2013-05-06 02:50:00,
2013-05-05 19:55:00,71.5,47.2,29.81,NNE,20,0.0,3.0,42,0.00,,,0.00,WUHU216DAVISVP2,2013-05-06 02:55:00,
2013-05-05 20:00:00,71.2,46.8,29.81,North,6,1.0,3.0,42,0.00,,,0.00,WUHU216DAVISVP2,2013-05-06 03:00:00,
2013-05-05 20:05:00,71.0,47.3,29.81,North,360,0.0,1.0,43,0.00,,,0.00,WUHU216DAVISVP2,2013-05-06 03:05:00,
2013-05-05 20:10:00,70.7,47.7,29.81,North,359,0.0,1.0,44,0.00,,,0.00,WUHU216DAVISVP2,2013-05-06 03:10:00,
2013-05-05 20:15:00,70.6,47.6,29.81,North,5,0.0,1.0,44,0.00,,,0.00,WUHU216DAVISVP2,2013-05-06 03:15:00,
2013-05-05 20:20:00,70.2,47.9,29.81,North,5,0.0,1.0,45,0.00,,,0.00,WUHU216DAVISVP2,2013-05-06 03:20:00,
2013-05-05 20:25:00,69.6,48.5,29.81,North,5,0.0,1.0,47,0.00,,,0.00,WUHU216DAVISVP2,2013-05-06 03:25:00,
2013-05-05 20:30:00,68.8,48.3,29.81,North,5,0.0,1.0,48,0.00,,,0.00,WUHU216DAVISVP2,2013-05-06 03:30:00,
2013-05-05 20:35:00,68.2,48.3,29.81,North,4,0.0,0.0,49,0.00,,,0.00,WUHU216DAVISVP2,2013-05-06 03:35:00,
2013-05-05 20:40:00,67.8,48.5,29.81,North,5,0.0,0.0,50,0.00,,,0.00,WUHU216DAVISVP2,2013-05-06 03:40:00,
2013-05-05 20:45:00,67.3,48.6,29.82,North,4,0.0,0.0,51,0.00,,,0.00,WUHU216DAVISVP2,2013-05-06 03:45:00,
2013-05-05 20:50:00,66.9,49.3,29.82,North,4,0.0,0.0,53,0.00,,,0.00,WUHU216DAVISVP2,2013-05-06 03:50:00,
2013-05-05 20:55:00,66.4,49.3,29.82,North,5,0.0,0.0,54,0.00,,,0.00,WUHU216DAVISVP2,2013-05-06 03:55:00,
2013-05-05 21:00:00,66.2,49.1,29.82,North,5,0.0,0.0,54,0.00,,,0.00,WUHU216DAVISVP2,2013-05-06 04:00:00,
2013-05-05 21:01:00,66.2,49.2,29.82,North,5,0.0,0.0,54,0.00,,,0.00,WUHU216DAVISVP2,2013-05-06 04:01:00,
2013-05-05 21:06:00,66.3,48.2,29.82,North,5,0.0,0.0,52,0.00,,,0.00,WUHU216DAVISVP2,2013-05-06 04:06:00,
2013-05-05 21:11:00,67.2,48.5,29.82,NE,43,0.0,1.0,51,0.00,,,0.00,WUHU216DAVISVP2,2013-05-06 04:11:00,
2013-05-05 21:16:00,67.6,47.8,29.82,NE,37,0.0,1.0,49,0.00,,,0.00,WUHU216DAVISVP2,2013-05-06 04:16:00,
2013-05-05 21:21:00,68.2,47.8,29.83,NE,37,0.0,1.0,48,0.00,,,0.00,WUHU216DAVISVP2,2013-05-06 04:21:00,
2013-05-05 21:26:00,68.5,47.5,29.83,NE,53,0.0,1.0,47,0.00,,,0.00,WUHU216DAVISVP2,2013-05-06 04:26:00,
2013-05-05 21:31:00,68.8,47.7,29.83,East,96,0.0,1.0,47,0.00,,,0.00,WUHU216DAVISVP2,2013-05-06 04:31:00,
2013-05-05 21:36:00,69.0,47.9,29.83,East,79,0.0,1.0,47,0.00,,,0.00,WUHU216DAVISVP2,2013-05-06 04:36:00,
2013-05-05 21:41:00,69.0,48.5,29.83,NNW,340,0.0,1.0,48,0.00,,,0.00,WUHU216DAVISVP2,2013-05-06 04:41:00,
2013-05-05 21:46:00,68.8,48.3,29.83,ENE,72,0.0,2.0,48,0.00,,,0.00,WUHU216DAVISVP2,2013-05-06 04:46:00,
2013-05-05 21:51:00,68.9,48.4,29.83,ENE,76,0.0,2.0,48,0.00,,,0.00,WUHU216DAVISVP2,2013-05-06 04:51:00,
2013-05-05 21:56:00,68.9,49.0,29.83,ENE,75,0.0,2.0,49,0.00,,,0.00,WUHU216DAVISVP2,2013-05-06 04:56:00,
2013-05-05 22:01:00,68.6,48.7,29.83,ENE,70,0.0,1.0,49,0.00,,,0.00,WUHU216DAVISVP2,2013-05-06 05:01:00,
2013-05-05 22:06:00,68.8,48.9,29.83,ENE,70,0.0,1.0,49,0.00,,,0.00,WUHU216DAVISVP2,2013-05-06 05:06:00,
2013-05-05 22:11:00,69.1,48.6,29.83,ENE,70,0.0,2.0,48,0.00,,,0.00,WUHU216DAVISVP2,2013-05-06 05:11:00,
2013-05-05 22:16:00,69.0,48.5,29.83,East,91,0.0,2.0,48,0.00,,,0.00,WUHU216DAVISVP2,2013-05-06 05:16:00,
2013-05-05 22:21:00,68.9,48.9,29.83,ENE,75,0.0,2.0,49,0.00,,,0.00,WUHU216DAVISVP2,2013-05-06 05:21:00,
2013-05-05 22:26:00,68.8,48.9,29.83,ENE,68,0.0,2.0,49,0.00,,,0.00,WUHU216DAVISVP2,2013-05-06 05:26:00,
2013-05-05 22:31:00,68.8,48.9,29.83,ENE,68,0.0,1.0,49,0.00,,,0.00,WUHU216DAVISVP2,2013-05-06 05:31:00,
2013-05-05 22:36:00,68.8,48.9,29.83,ENE,68,0.0,1.0,49,0.00,,,0.00,WUHU216DAVISVP2,2013-05-06 05:36:00,
2013-05-05 22:41:00,68.6,48.7,29.83,ENE,68,0.0,1.0,49,0.00,,,0.00,WUHU216DAVISVP2,2013-05-06 05:41:00,
2013-05-05 22:46:00,68.3,48.9,29.83,NE,41,0.0,0.0,50,0.00,,,0.00,WUHU216DAVISVP2,2013-05-06 05:46:00,
2013-05-05 22:51:00,68.1,48.8,29.83,NE,43,0.0,0.0,50,0.00,,,0.00,WUHU216DAVISVP2,2013-05-06 05:51:00,
2013-05-05 22:56:00,68.2,48.3,29.83,North,4,0.0,0.0,49,0.00,,,0.00,WUHU216DAVISVP2,2013-05-06 05:56:00,
2013-05-05 23:01:00,68.0,48.7,29.83,NE,34,0.0,0.0,50,0.00,,,0.00,WUHU216DAVISVP2,2013-05-06 06:01:00,
2013-05-05 23:06:00,67.8,48.0,29.83,NNE,33,0.0,0.0,49,0.00,,,0.00,WUHU216DAVISVP2,2013-05-06 06:06:00,
2013-05-05 23:11:00,67.8,48.0,29.83,North,355,0.0,0.0,49,0.00,,,0.00,WUHU216DAVISVP2,2013-05-06 06:11:00,
2013-05-05 23:16:00,67.4,47.6,29.84,North,355,0.0,0.0,49,0.00,,,0.00,WUHU216DAVISVP2,2013-05-06 06:16:00,
2013-05-05 23:21:00,66.8,48.1,29.84,North,356,0.0,0.0,51,0.00,,,0.00,WUHU216DAVISVP2,2013-05-06 06:21:00,
2013-05-05 23:26:00,66.4,47.8,29.84,North,355,0.0,0.0,51,0.00,,,0.00,WUHU216DAVISVP2,2013-05-06 06:26:00,
2013-05-05 23:31:00,66.2,48.0,29.84,North,355,0.0,0.0,52,0.00,,,0.00,WUHU216DAVISVP2,2013-05-06 06:31:00,
2013-05-05 23:36:00,66.3,48.2,29.84,North,355,0.0,0.0,52,0.00,,,0.00,WUHU216DAVISVP2,2013-05-06 06:36:00,
2013-05-05 23:41:00,66.4,48.3,29.84,North,355,0.0,0.0,52,0.00,,,0.00,WUHU216DAVISVP2,2013-05-06 06:41:00,
2013-05-05 23:46:00,66.4,48.3,29.84,North,355,0.0,0.0,52,0.00,,,0.00,WUHU216DAVISVP2,2013-05-06 06:46:00,
2013-05-05 23:51:00,66.1,48.6,29.84,North,355,0.0,0.0,53,0.00,,,0.00,WUHU216DAVISVP2,2013-05-06 06:51:00,
2013-05-05 23:56:00,65.8,48.3,29.84,North,355,0.0,0.0,53,0.00,,,0.00,WUHU216DAVISVP2,2013-05-06 06:56:00,